FDX122 VOBL-VOHS

Flight info

Callsign FDX122
Flight time 0h 45m
Altitude 31000
Route LATID7B LATID Q22 SAKRO SARKA8
Aircraft B77L/H-SDE1E2E3FGHIJ2J3J4J5M1RWXY/LB1D1

Departure

Time 2026-05-05 19:30
Airport Kempegowda International Airport Bengaluru (VOBL)

Arrival

Time 2026-05-05 20:15
Airport Rajiv Gandhi International Airport (VOHS)
Time Latitude Longitude Altitude Speed Heading
2026-05-05 19:05 13.20181 77.69825 2973 ft 0 kts 180°
2026-05-05 19:19 13.20189 77.69825 2973 ft 2 kts 177°
2026-05-05 19:19 13.20206 77.69824 2973 ft 2 kts 174°
2026-05-05 19:19 13.20223 77.69822 2973 ft 2 kts 169°
2026-05-05 19:20 13.20239 77.69818 2973 ft 2 kts 159°
2026-05-05 19:20 13.20254 77.69810 2973 ft 2 kts 141°
2026-05-05 19:20 13.20265 77.69798 2973 ft 2 kts 115°
2026-05-05 19:20 13.20270 77.69782 2973 ft 2 kts 94°
2026-05-05 19:21 13.20270 77.69775 2973 ft 0 kts 91°
2026-05-05 19:23 13.20270 77.69788 2973 ft 5 kts 91°
2026-05-05 19:24 13.20269 77.69851 2973 ft 13 kts 91°
2026-05-05 19:24 13.20268 77.69961 2973 ft 16 kts 90°
2026-05-05 19:24 13.20268 77.70076 2973 ft 16 kts 90°
2026-05-05 19:24 13.20268 77.70192 2973 ft 16 kts 90°
2026-05-05 19:25 13.20266 77.70308 2973 ft 16 kts 90°
2026-05-05 19:25 13.20278 77.70403 2973 ft 8 kts 42°
2026-05-05 19:25 13.20335 77.70397 2973 ft 8 kts 349°
2026-05-05 19:25 13.20405 77.70393 2973 ft 17 kts
2026-05-05 19:26 13.20524 77.70428 2973 ft 15 kts 69°
2026-05-05 19:26 13.20529 77.70547 2973 ft 22 kts 90°
2026-05-05 19:26 13.20527 77.70720 2972 ft 24 kts 91°
2026-05-05 19:26 13.20526 77.70894 2969 ft 24 kts 91°
2026-05-05 19:27 13.20523 77.71068 2970 ft 24 kts 90°
2026-05-05 19:27 13.20521 77.71243 2971 ft 26 kts 90°
2026-05-05 19:27 13.20519 77.71479 2971 ft 40 kts 90°
2026-05-05 19:27 13.20519 77.71772 2973 ft 40 kts 90°
2026-05-05 19:28 13.20516 77.72052 2972 ft 38 kts 91°
2026-05-05 19:28 13.20554 77.72200 2972 ft 15 kts
2026-05-05 19:28 13.20659 77.72200 2972 ft 14 kts 352°
2026-05-05 19:28 13.20687 77.72122 2972 ft 17 kts 271°
2026-05-05 19:29 13.20690 77.71816 2972 ft 76 kts 270°
2026-05-05 19:29 13.20696 77.71047 2972 ft 137 kts 270°
2026-05-05 19:29 13.20701 77.69888 2978 ft 184 kts 271°
2026-05-05 19:29 13.20731 77.68544 3428 ft 190 kts 271°
2026-05-05 19:30 13.20990 77.67183 3855 ft 201 kts 300°
2026-05-05 19:30 13.22052 77.66229 4186 ft 211 kts 328°
2026-05-05 19:30 13.23163 77.65209 4309 ft 229 kts 296°
2026-05-05 19:30 13.23768 77.63633 4498 ft 248 kts 290°
2026-05-05 19:31 13.24551 77.61966 4881 ft 265 kts 297°
2026-05-05 19:31 13.25482 77.60285 5440 ft 276 kts 300°
2026-05-05 19:31 13.26456 77.58594 6128 ft 281 kts 301°
2026-05-05 19:31 13.27477 77.56834 6888 ft 285 kts 301°
2026-05-05 19:32 13.28498 77.55079 7591 ft 289 kts 302°
2026-05-05 19:32 13.29676 77.53464 8188 ft 287 kts 322°
2026-05-05 19:32 13.31455 77.52581 8799 ft 286 kts 353°
2026-05-05 19:32 13.32784 77.52553 9343 ft 280 kts 10°
2026-05-05 19:33 13.35225 77.53357 10315 ft 281 kts 27°
2026-05-05 19:33 13.36963 77.54349 10827 ft 293 kts 31°
2026-05-05 19:33 13.38780 77.55472 10996 ft 320 kts 31°
2026-05-05 19:33 13.40774 77.56714 11005 ft 349 kts 31°
2026-05-05 19:34 13.42897 77.58027 10996 ft 359 kts 31°
2026-05-05 19:34 13.44350 77.58916 10997 ft 361 kts 31°
2026-05-05 19:34 13.47248 77.60671 11819 ft 367 kts 31°
2026-05-05 19:35 13.50916 77.62880 13368 ft 370 kts 30°
2026-05-05 19:35 13.53989 77.64517 14224 ft 377 kts 22°
2026-05-05 19:35 13.55634 77.65127 14595 ft 383 kts 18°
2026-05-05 19:35 13.59096 77.66200 15459 ft 392 kts 16°
2026-05-05 19:36 13.60846 77.66715 15891 ft 396 kts 16°
2026-05-05 19:36 13.63514 77.67508 16575 ft 402 kts 16°
2026-05-05 19:36 13.66210 77.68331 17280 ft 406 kts 17°
2026-05-05 19:36 13.68941 77.69186 17846 ft 415 kts 17°
2026-05-05 19:37 13.71729 77.70075 18369 ft 422 kts 17°
2026-05-05 19:37 13.74534 77.70981 18941 ft 426 kts 17°
2026-05-05 19:37 13.77390 77.71910 19545 ft 430 kts 17°
2026-05-05 19:37 13.80250 77.72844 20075 ft 435 kts 17°
2026-05-05 19:38 13.83153 77.73792 20605 ft 439 kts 17°
2026-05-05 19:38 13.86076 77.74748 21137 ft 444 kts 16°
2026-05-05 19:38 13.89038 77.75716 21652 ft 448 kts 16°
2026-05-05 19:38 13.91996 77.76682 22137 ft 453 kts 16°
2026-05-05 19:39 13.95052 77.77681 22630 ft 457 kts 16°
2026-05-05 19:39 13.98053 77.78662 23085 ft 462 kts 15°
2026-05-05 19:39 14.01143 77.79672 23541 ft 466 kts 15°
2026-05-05 19:39 14.04235 77.80683 23939 ft 469 kts 16°
2026-05-05 19:40 14.07370 77.81709 24373 ft 471 kts 16°
2026-05-05 19:40 14.10506 77.82735 24811 ft 473 kts 16°
2026-05-05 19:40 14.13650 77.83765 25228 ft 476 kts 16°
2026-05-05 19:40 14.16805 77.84798 25653 ft 478 kts 16°
2026-05-05 19:41 14.19996 77.85844 26052 ft 481 kts 16°
2026-05-05 19:41 14.23188 77.86889 26446 ft 483 kts 16°
2026-05-05 19:41 14.26401 77.87942 26868 ft 485 kts 16°
2026-05-05 19:41 14.29618 77.88998 27348 ft 485 kts 16°
2026-05-05 19:42 14.32833 77.90052 27859 ft 485 kts 16°
2026-05-05 19:42 14.36047 77.91106 28398 ft 485 kts 16°
2026-05-05 19:42 14.39265 77.92163 28882 ft 485 kts 16°
2026-05-05 19:42 14.42492 77.93222 29369 ft 486 kts 16°
2026-05-05 19:43 14.45717 77.94280 29933 ft 486 kts 17°
2026-05-05 19:43 14.48945 77.95287 30469 ft 482 kts 13°
2026-05-05 19:43 14.52231 77.96005 30856 ft 484 kts
2026-05-05 19:44 14.58918 77.97015 30838 ft 484 kts
2026-05-05 19:44 14.65557 77.97978 30833 ft 480 kts
2026-05-05 19:45 14.72154 77.99045 30834 ft 480 kts
2026-05-05 19:45 14.78706 78.00158 30834 ft 480 kts
2026-05-05 19:46 14.85314 78.01287 30828 ft 480 kts
2026-05-05 19:46 14.91906 78.02410 30826 ft 481 kts
2026-05-05 19:47 14.98503 78.03531 30823 ft 481 kts
2026-05-05 19:47 15.05114 78.04655 30821 ft 481 kts
2026-05-05 19:48 15.11723 78.05779 30818 ft 481 kts
2026-05-05 19:48 15.18330 78.06904 30811 ft 481 kts
2026-05-05 19:49 15.24932 78.08029 30813 ft 481 kts
2026-05-05 19:49 15.31512 78.09151 30813 ft 481 kts
2026-05-05 19:50 15.37627 78.10191 30810 ft 479 kts
2026-05-05 19:50 15.40870 78.10726 30783 ft 464 kts
2026-05-05 19:50 15.43999 78.11235 30783 ft 448 kts
2026-05-05 19:51 15.50106 78.12221 30811 ft 451 kts
2026-05-05 19:51 15.56433 78.13244 30804 ft 461 kts
2026-05-05 19:51 15.59547 78.13753 30786 ft 449 kts
2026-05-05 19:52 15.62597 78.14252 30783 ft 438 kts
2026-05-05 19:52 15.68651 78.15241 30173 ft 444 kts
2026-05-05 19:52 15.71687 78.15737 29737 ft 442 kts
2026-05-05 19:53 15.74722 78.16233 29211 ft 439 kts
2026-05-05 19:53 15.77730 78.16725 28739 ft 436 kts
2026-05-05 19:53 15.80674 78.17207 28290 ft 432 kts
2026-05-05 19:53 15.83638 78.17692 27840 ft 429 kts
2026-05-05 19:54 15.86580 78.18173 27389 ft 426 kts
2026-05-05 19:54 15.89501 78.18652 26961 ft 423 kts
2026-05-05 19:54 15.92405 78.19127 26525 ft 421 kts
2026-05-05 19:54 15.95285 78.19599 26094 ft 419 kts
2026-05-05 19:55 15.98162 78.20070 25660 ft 417 kts
2026-05-05 19:55 16.01027 78.20539 25229 ft 416 kts
2026-05-05 19:55 16.03876 78.21006 24796 ft 414 kts
2026-05-05 19:55 16.06719 78.21472 24366 ft 413 kts
2026-05-05 19:56 16.09553 78.21937 23940 ft 412 kts
2026-05-05 19:56 16.12392 78.22403 23515 ft 411 kts
2026-05-05 19:56 16.15212 78.22866 23028 ft 411 kts
2026-05-05 19:56 16.18029 78.23328 22558 ft 409 kts
2026-05-05 19:57 16.20828 78.23788 22135 ft 406 kts
2026-05-05 19:57 16.22674 78.24090 21852 ft 404 kts
2026-05-05 19:57 16.26382 78.24690 21287 ft 400 kts
2026-05-05 19:57 16.29104 78.25129 20874 ft 398 kts
2026-05-05 19:58 16.31820 78.25567 20462 ft 395 kts
2026-05-05 19:58 16.34531 78.26006 20052 ft 393 kts
2026-05-05 19:58 16.37221 78.26441 19640 ft 390 kts
2026-05-05 19:58 16.39895 78.26874 19230 ft 388 kts
2026-05-05 19:59 16.42558 78.27305 18806 ft 386 kts
2026-05-05 19:59 16.45211 78.27735 18390 ft 384 kts
2026-05-05 19:59 16.47847 78.28163 17940 ft 382 kts
2026-05-05 19:59 16.50436 78.28583 17511 ft 379 kts
2026-05-05 20:00 16.53067 78.29010 17067 ft 376 kts
2026-05-05 20:00 16.55604 78.29422 16660 ft 372 kts
2026-05-05 20:00 16.58157 78.29838 16251 ft 368 kts
2026-05-05 20:00 16.60678 78.30257 15859 ft 365 kts
2026-05-05 20:01 16.63171 78.30673 15471 ft 361 kts
2026-05-05 20:01 16.65635 78.31085 15081 ft 358 kts
2026-05-05 20:01 16.68084 78.31494 14696 ft 354 kts
2026-05-05 20:01 16.70511 78.31899 14307 ft 351 kts
2026-05-05 20:02 16.72916 78.32300 13925 ft 348 kts
2026-05-05 20:02 16.75303 78.32698 13532 ft 346 kts
2026-05-05 20:02 16.77664 78.33092 13117 ft 342 kts
2026-05-05 20:02 16.80011 78.33484 12742 ft 339 kts
2026-05-05 20:03 16.82317 78.33868 12358 ft 335 kts
2026-05-05 20:03 16.84608 78.34251 11988 ft 331 kts
2026-05-05 20:03 16.86841 78.34623 11625 ft 327 kts
2026-05-05 20:03 16.89102 78.35001 11258 ft 323 kts
2026-05-05 20:04 16.91270 78.35253 10901 ft 311 kts 356°
2026-05-05 20:04 16.93350 78.34738 10572 ft 297 kts 339°
2026-05-05 20:04 16.95274 78.34224 10307 ft 285 kts 356°
2026-05-05 20:04 16.97193 78.34241 10204 ft 269 kts 359°
2026-05-05 20:05 16.98836 78.34211 10102 ft 261 kts 356°
2026-05-05 20:05 17.00676 78.34101 10000 ft 268 kts 355°
2026-05-05 20:05 17.02583 78.33959 9742 ft 280 kts 354°
2026-05-05 20:05 17.04542 78.33797 9407 ft 283 kts 354°
2026-05-05 20:06 17.06497 78.33628 9080 ft 280 kts 354°
2026-05-05 20:06 17.08431 78.33458 8754 ft 276 kts 354°
2026-05-05 20:06 17.09276 78.33384 8619 ft 274 kts 354°
2026-05-05 20:07 17.10309 78.33292 8448 ft 271 kts 353°
2026-05-05 20:07 17.12045 78.32805 8120 ft 258 kts 327°
2026-05-05 20:08 17.13295 78.31495 7883 ft 261 kts 300°
2026-05-05 20:08 17.13995 78.29693 7680 ft 265 kts 281°
2026-05-05 20:08 17.14125 78.27843 7527 ft 252 kts 269°
2026-05-05 20:08 17.14067 78.26056 7394 ft 240 kts 268°
2026-05-05 20:09 17.14006 78.24323 7109 ft 237 kts 268°
2026-05-05 20:09 17.13963 78.22620 6851 ft 233 kts 269°
2026-05-05 20:09 17.14042 78.20953 6473 ft 227 kts 285°
2026-05-05 20:09 17.14819 78.19550 6071 ft 225 kts 319°
2026-05-05 20:10 17.16191 78.18838 5689 ft 220 kts 347°
2026-05-05 20:10 17.17701 78.18661 5308 ft 217 kts 357°
2026-05-05 20:10 17.19188 78.18660 4941 ft 213 kts 359°
2026-05-05 20:10 17.20656 78.18826 4634 ft 216 kts 21°
2026-05-05 20:11 17.21856 78.19780 4616 ft 223 kts 58°
2026-05-05 20:11 17.22353 78.21307 4614 ft 224 kts 85°
2026-05-05 20:11 17.22539 78.22938 4593 ft 227 kts 87°
2026-05-05 20:11 17.22628 78.24559 4593 ft 225 kts 91°
2026-05-05 20:12 17.22656 78.26193 4582 ft 222 kts 92°
2026-05-05 20:12 17.22675 78.27795 4482 ft 216 kts 91°
2026-05-05 20:12 17.22695 78.29321 4175 ft 202 kts 91°
2026-05-05 20:12 17.22715 78.30725 3955 ft 183 kts 92°
2026-05-05 20:13 17.22731 78.31987 3727 ft 172 kts 91°
2026-05-05 20:13 17.22748 78.33237 3530 ft 171 kts 91°
2026-05-05 20:13 17.22764 78.34457 3298 ft 162 kts 91°
2026-05-05 20:13 17.22780 78.35604 3099 ft 157 kts 91°
2026-05-05 20:14 17.22796 78.36747 2891 ft 156 kts 91°
2026-05-05 20:14 17.22810 78.37876 2703 ft 156 kts 89°
2026-05-05 20:14 17.22818 78.39034 2500 ft 162 kts 89°
2026-05-05 20:14 17.22839 78.40237 2213 ft 168 kts 85°
2026-05-05 20:15 17.22858 78.41456 1999 ft 168 kts 88°
2026-05-05 20:15 17.22875 78.42583 1983 ft 133 kts 90°
2026-05-05 20:15 17.22882 78.43313 1989 ft 68 kts 88°
2026-05-05 20:15 17.22889 78.43653 1985 ft 41 kts 89°
2026-05-05 20:16 17.22926 78.43881 1986 ft 25 kts 67°
2026-05-05 20:16 17.23008 78.44042 1987 ft 25 kts 57°
2026-05-05 20:16 17.23091 78.44068 1988 ft 11 kts 300°
2026-05-05 20:16 17.23095 78.43988 1985 ft 11 kts 271°
2026-05-05 20:17 17.23095 78.43952 1984 ft 15 kts 269°
2026-05-05 20:17 17.23095 78.43934 1984 ft 16 kts 269°
2026-05-05 20:17 17.23094 78.43813 1984 ft 18 kts 269°
2026-05-05 20:17 17.23092 78.43663 1984 ft 24 kts 269°
2026-05-05 20:18 17.23090 78.43478 1983 ft 26 kts 269°
2026-05-05 20:18 17.23087 78.43253 1983 ft 38 kts 270°
2026-05-05 20:18 17.23082 78.42917 1987 ft 53 kts 269°
2026-05-05 20:18 17.23076 78.42543 1987 ft 50 kts 269°
2026-05-05 20:19 17.23073 78.42313 1987 ft 29 kts 272°
2026-05-05 20:19 17.23156 78.42237 1987 ft 0 kts 358°
2026-05-05 20:19 17.23184 78.42235 1987 ft 12 kts 354°
2026-05-05 20:19 17.23222 78.42197 1987 ft 12 kts 285°
2026-05-05 20:20 17.23230 78.42109 1984 ft 12 kts 270°
2026-05-05 20:20 17.23230 78.42083 1984 ft 3 kts 268°
2026-05-05 20:20 17.23237 78.42060 1984 ft 4 kts 310°
2026-05-05 20:20 17.23278 78.42053 1985 ft 13 kts 358°
2026-05-05 20:21 17.23396 78.42050 1986 ft 3 kts 358°
2026-05-05 20:21 17.23410 78.42050 1987 ft 0 kts 359°